Terminal Aerodrome Forecast
Issued by NWS Amarillo, TX

Home | Current Version | Previous Version | Text Only | Print | Product List | Glossary On
Versions: 1 2 3 4 5 6 7 8 9 10 11 12 13 14 15 16
000
FTUS44 KAMA 271100
TAFDHT
TAF
KDHT 271126Z 2712/2812 VRB06KT P6SM SCT070 BKN120
     FM271700 19012G20KT P6SM VCTS BKN070CB
     FM280200 16013KT P6SM BKN100
     FM280800 22008KT P6SM BKN100=

USA.gov is the U.S. government's official web portal to all federal, state and local government web resources and services.